GW2632 Weather Reports


Display with metric or nautical units.
time (UTC)temp
F
wind
direction
speed
MPH
gust
MPH
rain 1hr
in
rain 24hr
in
rain mn
in
humidity
%
barometer
mb
20260507013917 80 32 3.0 9.0 0.00 0.00 0.00 56 1015.4
20260507013414 80 35 5.0 7.0 0.00 0.00 0.00 56 1015.2
20260507012912 80 107 5.0 6.0 0.00 0.00 0.00 56 1015.2
20260507012408 80 155 6.0 7.0 0.00 0.00 0.00 56 1015.2
20260507011904 80 217 2.0 6.0 0.00 0.00 0.00 56 1015.2
20260507011402 80 138 3.0 6.0 0.00 0.00 0.00 56 1015.2
20260507010901 81 134 4.0 9.0 0.00 0.00 0.00 55 1015.1
20260507010357 81 113 3.0 6.0 0.00 0.00 0.00 55 1015.5
20260507005854 81 72 2.0 6.0 0.00 0.00 0.00 56 1015.6
20260507005350 81 123 2.0 4.0 0.00 0.00 0.00 55 1015.2
20260507004848 81 21 2.0 9.0 0.00 0.00 0.00 55 1015.2
20260507004345 81 113 2.0 4.0 0.00 0.00 0.00 55 1015.3
20260507003842 82 160 6.0 8.0 0.00 0.00 0.00 55 1015.2
20260507003337 82 76 4.0 8.0 0.00 0.00 0.00 54 1015.1
20260507002832 82 228 4.0 6.0 0.00 0.00 0.00 54 1014.8
20260507002329 82 92 1.0 4.0 0.00 0.00 0.00 53 1014.8
20260507001827 83 40 3.0 7.0 0.00 0.00 0.00 53 1014.8
20260507001323 83 148 6.0 7.0 0.00 0.00 0.00 53 1014.9
20260507000820 83 139 3.0 8.0 0.00 0.00 0.00 52 1014.9
20260507000315 84 69 5.0 8.0 0.00 0.00 0.00 52 1014.6
20260506235812 84 104 4.0 7.0 0.00 0.00 0.00 52 1014.6
20260506235308 84 112 2.0 8.0 0.00 0.00 0.00 52 1014.8
20260506234805 85 33 2.0 6.0 0.00 0.00 0.00 52 1014.6
20260506234302 85 60 2.0 6.0 0.00 0.00 0.00 52 1014.7
20260506233800 86 157 4.0 6.0 0.00 0.00 0.00 51 1014.6
20260506233256 86 121 6.0 9.0 0.00 0.00 0.00 51 1014.5
20260506232753 86 135 4.0 9.0 0.00 0.00 0.00 50 1014.5
20260506232254 87 178 5.0 9.0 0.00 0.00 0.00 50 1014.7
20260506231751 87 130 9.0 10.0 0.00 0.00 0.00 49 1014.5
20260506231249 87 158 4.0 6.0 0.00 0.00 0.00 49 1014.4
20260506230745 88 133 4.0 8.0 0.00 0.00 0.00 48 1014.7
20260506230242 89 116 4.0 4.0 0.00 0.00 0.00 47 1014.5
20260506225739 91 113 5.0 8.0 0.00 0.00 0.00 42 1014.5
20260506225236 91 300 2.0 2.0 0.00 0.00 0.00 39 1014.3
20260506224732 91 103 2.0 4.0 0.00 0.00 0.00 40 1014.4
20260506224230 91 138 2.0 4.0 0.00 0.00 0.00 40 1014.2
20260506223726 91 30 1.0 2.0 0.00 0.00 0.00 39 1014.7
20260506223221 91 345 1.0 3.0 0.00 0.00 0.00 38 1014.6
20260506222719 91 291 3.0 6.0 0.00 0.00 0.00 38 1014.4
20260506222214 91 140 2.0 3.0 0.00 0.00 0.00 39 1014.5
20260506221712 91 306 3.0 6.0 0.00 0.00 0.00 39 1014.5
20260506221210 91 344 2.0 4.0 0.00 0.00 0.00 38 1014.5
20260506220707 91 139 2.0 3.0 0.00 0.00 0.00 41 1014.6
20260506220202 91 100 2.0 3.0 0.00 0.00 0.00 37 1014.6
20260506215659 91 318 1.0 2.0 0.00 0.00 0.00 37 1014.6
20260506215154 91 264 2.0 4.0 0.00 0.00 0.00 36 1014.6
20260506214651 91 146 2.0 4.0 0.00 0.00 0.00 37 1014.7
20260506214149 91 125 2.0 3.0 0.00 0.00 0.00 37 1014.7
20260506213647 91 143 3.0 6.0 0.00 0.00 0.00 38 1014.9
20260506213144 91 144 4.0 6.0 0.00 0.00 0.00 39 1014.6
20260506212641 91 37 1.0 4.0 0.00 0.00 0.00 37 1014.6
20260506212136 91 230 2.0 6.0 0.00 0.00 0.00 38 1014.8
20260506211632 91 154 4.0 7.0 0.00 0.00 0.00 38 1014.9
20260506211129 91 185 2.0 3.0 0.00 0.00 0.00 37 1014.7
20260506210627 91 350 1.0 3.0 0.00 0.00 0.00 38 1014.7
20260506210123 92 116 3.0 4.0 0.00 0.00 0.00 38 1014.6
20260506205620 91 357 1.0 4.0 0.00 0.00 0.00 37 1014.3
20260506205119 92 137 3.0 4.0 0.00 0.00 0.00 38 1014.7
20260506204618 92 271 3.0 7.0 0.00 0.00 0.00 37 1014.6
20260506204115 92 266 3.0 4.0 0.00 0.00 0.00 36 1014.7
20260506203613 92 332 1.0 4.0 0.00 0.00 0.00 36 1014.8
20260506203109 91 4 1.0 3.0 0.00 0.00 0.00 36 1014.8
20260506202607 91 292 2.0 4.0 0.00 0.00 0.00 36 1014.9
20260506202103 92 179 3.0 8.0 0.00 0.00 0.00 37 1015.0
20260506201600 92 225 4.0 6.0 0.00 0.00 0.00 37 1014.9
20260506201057 93 228 3.0 3.0 0.00 0.00 0.00 37 1014.7
20260506200553 92 22 2.0 3.0 0.00 0.00 0.00 35 1014.8
20260506200050 91 75 1.0 3.0 0.00 0.00 0.00 37 1014.7
20260506195547 91 118 4.0 7.0 0.00 0.00 0.00 38 1015.2
20260506195043 92 217 2.0 4.0 0.00 0.00 0.00 37 1014.7
20260506194541 92 337 2.0 4.0 0.00 0.00 0.00 37 1014.9
20260506194037 93 50 2.0 7.0 0.00 0.00 0.00 37 1015.2
20260506193535 92 5 1.0 2.0 0.00 0.00 0.00 38 1015.2
20260506193032 91 129 4.0 4.0 0.00 0.00 0.00 39 1015.2
20260506192529 91 307 1.0 4.0 0.00 0.00 0.00 39 1015.4
20260506192024 91 201 6.0 9.0 0.00 0.00 0.00 39 1015.5
20260506191522 92 125 4.0 6.0 0.00 0.00 0.00 38 1015.5
20260506191017 91 36 3.0 6.0 0.00 0.00 0.00 39 1015.6
20260506190515 90 103 2.0 3.0 0.00 0.00 0.00 39 1015.4
20260506190012 90 162 2.0 4.0 0.00 0.00 0.00 41 1015.6
20260506185509 91 222 3.0 4.0 0.00 0.00 0.00 40 1015.7
20260506185006 90 317 1.0 2.0 0.00 0.00 0.00 39 1015.6
20260506184503 90 128 3.0 8.0 0.00 0.00 0.00 40 1016.0
20260506184000 91 101 2.0 8.0 0.00 0.00 0.00 40 1016.0
20260506183455 91 340 1.0 6.0 0.00 0.00 0.00 40 1016.1
20260506182952 90 2 1.0 1.0 0.00 0.00 0.00 39 1016.2
20260506182450 90 209 3.0 6.0 0.00 0.00 0.00 41 1016.1
20260506181947 90 67 4.0 6.0 0.00 0.00 0.00 41 1016.2
20260506181445 90 266 2.0 6.0 0.00 0.00 0.00 39 1015.8
20260506180941 89 20 2.0 3.0 0.00 0.00 0.00 40 1016.1
20260506180438 90 1 2.0 4.0 0.00 0.00 0.00 41 1016.2
20260506175935 90 334 1.0 3.0 0.00 0.00 0.00 40 1016.2
20260506175431 91 155 6.0 8.0 0.00 0.00 0.00 39 1016.4
20260506174928 91 2 1.0 2.0 0.00 0.00 0.00 39 1016.3
20260506174426 89 322 1.0 1.0 0.00 0.00 0.00 41 1016.5
20260506173922 89 269 2.0 3.0 0.00 0.00 0.00 43 1016.8
20260506173419 89 151 4.0 6.0 0.00 0.00 0.00 41 1016.7
20260506172917 89 129 4.0 4.0 0.00 0.00 0.00 42 1016.7
20260506172413 89 264 4.0 6.0 0.00 0.00 0.00 43 1016.8
20260506171910 88 279 1.0 2.0 0.00 0.00 0.00 42 1016.8
20260506171408 88 154 3.0 6.0 0.00 0.00 0.00 43 1016.9
20260506170906 88 242 2.0 6.0 0.00 0.00 0.00 43 1016.7
20260506170402 88 251 2.0 6.0 0.00 0.00 0.00 44 1016.8
20260506165900 88 279 6.0 7.0 0.00 0.00 0.00 43 1016.9
20260506165359 87 321 2.0 3.0 0.00 0.00 0.00 44 1017.1
20260506164854 87 284 3.0 7.0 0.00 0.00 0.00 44 1017.0
20260506164351 88 222 4.0 7.0 0.00 0.00 0.00 47 1017.1
20260506163849 88 158 3.0 4.0 0.00 0.00 0.00 48 1017.1
20260506163343 88 348 1.0 4.0 0.00 0.00 0.00 46 1017.3
20260506162839 87 31 2.0 3.0 0.00 0.00 0.00 46 1017.5
20260506162337 86 41 1.0 2.0 0.00 0.00 0.00 47 1017.4
20260506161834 86 271 3.0 6.0 0.00 0.00 0.00 50 1017.3
20260506161331 86 350 0.0 3.0 0.00 0.00 0.00 48 1017.4
20260506160830 86 118 1.0 3.0 0.00 0.00 0.00 48 1017.5
20260506160326 85 213 5.0 6.0 0.00 0.00 0.00 49 1017.5
20260506155825 86 28 3.0 9.0 0.00 0.00 0.00 48 1017.4
20260506155321 86 64 2.0 4.0 0.00 0.00 0.00 48 1017.4
20260506153433 85 294 2.0 7.0 0.00 0.00 0.00 52 1017.3
20260506152930 84 205 4.0 7.0 0.00 0.00 0.00 53 1017.3
20260506152427 84 135 3.0 7.0 0.00 0.00 0.00 54 1017.5
20260506151926 84 231 5.0 6.0 0.00 0.00 0.00 53 1017.5
20260506151422 83 13 2.0 8.0 0.00 0.00 0.00 55 1017.2
20260506150920 83 37 1.0 7.0 0.00 0.00 0.00 57 1017.5
20260506150416 83 319 2.0 7.0 0.00 0.00 0.00 57 1017.4
20260506145913 83 191 3.0 6.0 0.00 0.00 0.00 59 1017.3
20260506145409 83 130 7.0 8.0 0.00 0.00 0.00 58 1017.4
20260506144907 82 36 2.0 7.0 0.00 0.00 0.00 62 1017.5
20260506144403 82 155 3.0 8.0 0.00 0.00 0.00 60 1017.5
20260506143902 82 123 4.0 7.0 0.00 0.00 0.00 64 1017.4
20260506143358 81 112 5.0 10.0 0.00 0.00 0.00 63 1017.3
20260506142857 81 156 2.0 6.0 0.00 0.00 0.00 66 1017.4
20260506142354 81 125 5.0 6.0 0.00 0.00 0.00 66 1017.3
20260506141852 80 336 2.0 4.0 0.00 0.00 0.00 68 1017.2
20260506141350 80 139 3.0 6.0 0.00 0.00 0.00 69 1017.2
20260506140848 80 146 4.0 8.0 0.00 0.00 0.00 69 1017.2
20260506140344 79 279 2.0 4.0 0.00 0.00 0.00 72 1017.2
20260506135841 79 307 1.0 6.0 0.00 0.00 0.00 73 1017.3
20260506135338 78 355 2.0 8.0 0.00 0.00 0.00 73 1017.4
20260506134834 78 56 5.0 8.0 0.00 0.00 0.00 74 1017.3
20260506134331 78 150 4.0 8.0 0.00 0.00 0.00 75 1017.2
20260506133828 77 191 3.0 6.0 0.00 0.00 0.00 77 1017.0
20260506133325 77 137 5.0 7.0 0.00 0.00 0.00 78 1017.1
20260506132821 77 147 3.0 7.0 0.00 0.00 0.00 78 1017.3
20260506132319 77 200 6.0 8.0 0.00 0.00 0.00 78 1016.9
20260506131817 77 113 2.0 4.0 0.00 0.00 0.00 78 1017.4
20260506131312 76 342 1.0 3.0 0.00 0.00 0.00 78 1017.3
20260506130810 76 26 2.0 3.0 0.00 0.00 0.00 79 1017.2
20260506130306 75 20 3.0 3.0 0.00 0.00 0.00 78 1017.0
20260506125804 75 21 2.0 3.0 0.00 0.00 0.00 79 1017.0
20260506125305 74 353 2.0 3.0 0.00 0.00 0.00 80 1017.0
20260506124800 74 23 1.0 2.0 0.00 0.00 0.00 81 1017.1
20260506124257 73 130 4.0 4.0 0.00 0.00 0.00 81 1017.0
20260506123755 73 44 1.0 3.0 0.00 0.00 0.00 81 1016.8
20260506123253 73 86 1.0 3.0 0.00 0.00 0.00 83 1016.8
20260506122750 72 356 2.0 3.0 0.00 0.00 0.00 83 1016.8
20260506122247 72 50 2.0 3.0 0.00 0.00 0.00 84 1017.0
20260506121745 71 98 1.0 2.0 0.00 0.00 0.00 85 1016.8
20260506121241 71 33 2.0 3.0 0.00 0.00 0.00 86 1016.7
20260506120738 70 6 0.0 1.0 0.00 0.00 0.00 86 1016.8
20260506120237 69 353 0.0 0.0 0.00 0.00 0.00 88 1016.6
20260506115734 69 3 0.0 0.0 0.00 0.00 0.00 89 1016.6
20260506115232 68 357 0.0 0.0 0.00 0.00 0.00 91 1016.8
20260506114730 67 357 0.0 0.0 0.00 0.00 0.00 92 1016.6
20260506114227 67 358 0.0 0.0 0.00 0.00 0.00 93 1016.6
20260506113725 66 354 0.0 0.0 0.00 0.00 0.00 93 1016.7
20260506113223 65 354 0.0 0.0 0.00 0.00 0.00 93 1016.4
20260506112719 65 354 0.0 0.0 0.00 0.00 0.00 93 1016.4
20260506112217 65 354 0.0 0.0 0.00 0.00 0.00 93 1016.5
20260506111714 64 354 0.0 0.0 0.00 0.00 0.00 93 1016.5
20260506111212 64 354 0.0 0.0 0.00 0.00 0.00 93 1016.4
20260506110708 64 354 0.0 0.0 0.00 0.00 0.00 93 1016.2
20260506110206 64 354 0.0 0.0 0.00 0.00 0.00 93 1016.3
20260506105702 64 354 0.0 0.0 0.00 0.00 0.00 93 1016.0
20260506105159 64 354 0.0 0.0 0.00 0.00 0.00 93 1016.0
20260506104658 64 354 0.0 0.0 0.00 0.00 0.00 93 1016.0
20260506104155 64 354 0.0 0.0 0.00 0.00 0.00 93 1016.1
20260506103652 64 354 0.0 0.0 0.00 0.00 0.00 92 1016.0
20260506103149 64 354 0.0 0.0 0.00 0.00 0.00 92 1015.7
20260506102647 64 354 0.0 0.0 0.00 0.00 0.00 92 1015.8
20260506102144 64 354 0.0 0.0 0.00 0.00 0.00 92 1015.9
20260506101641 64 354 0.0 0.0 0.00 0.00 0.00 92 1016.1
20260506101138 64 354 0.0 0.0 0.00 0.00 0.00 92 1015.7
20260506100636 64 354 0.0 0.0 0.00 0.00 0.00 92 1015.8
20260506100134 64 354 0.0 0.0 0.00 0.00 0.00 92 1016.0
20260506095632 64 354 0.0 0.0 0.00 0.00 0.00 92 1016.1
20260506095128 64 354 0.0 0.0 0.00 0.00 0.00 92 1016.0
20260506094626 64 354 0.0 0.0 0.00 0.00 0.00 92 1016.2
20260506094124 64 354 0.0 0.0 0.00 0.00 0.00 91 1016.0
20260506093622 64 354 0.0 0.0 0.00 0.00 0.00 91 1016.0
20260506093119 64 354 0.0 0.0 0.00 0.00 0.00 91 1015.9
20260506092617 64 354 0.0 0.0 0.00 0.00 0.00 91 1015.7
20260506092113 64 354 0.0 0.0 0.00 0.00 0.00 91 1015.7
20260506091611 64 354 0.0 0.0 0.00 0.00 0.00 91 1015.8
20260506091109 64 354 0.0 0.0 0.00 0.00 0.00 91 1015.8
20260506090607 64 354 0.0 0.0 0.00 0.00 0.00 90 1015.5
20260506085559 64 354 0.0 0.0 0.00 0.00 0.00 90 1015.6
20260506085056 64 354 0.0 0.0 0.00 0.00 0.00 90 1015.5
20260506084553 64 354 0.0 0.0 0.00 0.00 0.00 90 1015.5
20260506084049 64 354 0.0 0.0 0.00 0.00 0.00 90 1015.4
20260506083546 64 354 0.0 0.0 0.00 0.00 0.00 90 1015.8
20260506083043 64 354 0.0 0.0 0.00 0.00 0.00 90 1015.8
20260506082540 64 354 0.0 0.0 0.00 0.00 0.00 90 1015.5
20260506082036 64 354 0.0 0.0 0.00 0.00 0.00 90 1015.5
20260506081534 64 354 0.0 0.0 0.00 0.00 0.00 89 1015.6
20260506081031 64 354 0.0 0.0 0.00 0.00 0.00 89 1015.5
20260506080529 64 354 0.0 0.0 0.00 0.00 0.00 89 1015.7
20260506073512 64 352 0.0 0.0 0.00 0.00 0.00 88 1015.6
20260506073009 64 352 0.0 0.0 0.00 0.00 0.00 88 1015.8
20260506072507 64 352 0.0 0.0 0.00 0.00 0.00 87 1015.8
20260506072004 64 352 0.0 0.0 0.00 0.00 0.00 87 1015.9
20260506071502 64 352 0.0 0.0 0.00 0.00 0.00 87 1015.7
20260506070959 64 352 0.0 0.0 0.00 0.00 0.00 87 1015.7
20260506070456 65 352 0.0 0.0 0.00 0.00 0.00 87 1015.6
20260506062433 65 350 0.0 0.0 0.00 0.00 0.00 84 1016.4
20260506061929 65 350 0.0 0.0 0.00 0.00 0.00 84 1016.3
20260506061426 65 350 0.0 0.0 0.00 0.00 0.00 83 1016.2
20260506060924 66 350 0.0 0.0 0.00 0.00 0.00 83 1016.2
20260506060422 66 350 0.0 0.0 0.00 0.00 0.00 83 1016.3
20260506051354 66 355 0.0 0.0 0.00 0.00 0.00 80 1016.5
20260506050851 67 355 0.0 0.0 0.00 0.00 0.00 80 1016.8
20260506050349 67 355 0.0 0.0 0.00 0.00 0.00 79 1016.8
20260506044839 67 355 0.0 0.0 0.00 0.00 0.00 78 1016.8
20260506044337 67 355 0.0 0.0 0.00 0.00 0.00 77 1016.8
20260506043833 68 355 0.0 0.0 0.00 0.00 0.00 77 1016.6
20260506043331 68 355 0.0 0.0 0.00 0.00 0.00 76 1016.8
20260506042829 68 355 0.0 0.0 0.00 0.00 0.00 75 1016.6
20260506042328 68 355 0.0 0.0 0.00 0.00 0.00 75 1016.5
20260506041826 68 355 0.0 0.0 0.00 0.00 0.00 75 1016.7
20260506041323 68 351 0.0 0.0 0.00 0.00 0.00 74 1016.6
20260506040820 69 351 0.0 0.0 0.00 0.00 0.00 74 1016.7
20260506040317 69 350 0.0 0.0 0.00 0.00 0.00 74 1016.6
20260506035813 68 357 0.0 0.0 0.00 0.00 0.00 74 1016.6
20260506035311 68 356 0.0 0.0 0.00 0.00 0.00 74 1016.5
20260506034808 69 355 0.0 0.0 0.00 0.00 0.00 73 1016.6
20260506034305 69 355 0.0 0.0 0.00 0.00 0.00 72 1016.6
20260506033802 69 355 0.0 0.0 0.00 0.00 0.00 71 1016.5
20260506033259 69 355 0.0 0.0 0.00 0.00 0.00 70 1016.6
20260506032756 70 355 0.0 0.0 0.00 0.00 0.00 69 1016.6
20260506032253 70 355 0.0 0.0 0.00 0.00 0.00 69 1016.4
20260506031749 70 359 0.0 0.0 0.00 0.00 0.00 68 1016.4
20260506031247 71 1 0.0 1.0 0.00 0.00 0.00 68 1016.5
20260506030745 70 1 0.0 0.0 0.00 0.00 0.00 67 1016.3
20260506030242 70 68 2.0 2.0 0.00 0.00 0.00 67 1016.1
20260506025739 70 359 0.0 0.0 0.00 0.00 0.00 67 1016.0
20260506025235 71 358 0.0 0.0 0.00 0.00 0.00 66 1016.1
20260506024732 71 8 0.0 1.0 0.00 0.00 0.00 66 1016.4
20260506024229 71 355 1.0 2.0 0.00 0.00 0.00 66 1016.3
20260506023725 71 36 0.0 1.0 0.00 0.00 0.00 66 1016.2
20260506023222 71 11 1.0 1.0 0.00 0.00 0.00 66 1016.1
20260506022719 71 16 1.0 1.0 0.00 0.00 0.00 65 1016.2
20260506022217 71 359 0.0 0.0 0.00 0.00 0.00 65 1016.4
20260506021715 71 359 0.0 1.0 0.00 0.00 0.00 64 1016.2
20260506021211 71 357 0.0 0.0 0.00 0.00 0.00 64 1016.1
20260506020708 71 1 0.0 0.0 0.00 0.00 0.00 63 1016.0
20260506020206 72 6 0.0 1.0 0.00 0.00 0.00 63 1016.2
20260506015703 72 1 0.0 1.0 0.00 0.00 0.00 62 1015.9
20260506015201 72 14 1.0 1.0 0.00 0.00 0.00 62 1015.8
20260506014658 72 353 0.0 0.0 0.00 0.00 0.00 62 1016.1